Time,TemperatureF,DewpointF,PressureIn,WindDirection,WindDirectionDegrees,WindSpeedMPH,WindSpeedGustMPH,Humidity,HourlyPrecipIn,Conditions,Clouds,dailyrainin,SoftwareType,DateUTC
2013-06-12 00:03:00,49.7,48.3,27.88,NW,318,0.0,0.0,95,0.00,,---,0.00,VWS V14.01,2013-06-12 05:03:00,
2013-06-12 00:08:00,49.5,48.1,27.88,NW,318,0.0,0.0,95,0.00,,---,0.00,VWS V14.01,2013-06-12 05:08:00,
2013-06-12 00:13:00,49.3,47.9,27.88,NW,318,0.0,0.0,95,0.00,,---,0.00,VWS V14.01,2013-06-12 05:13:00,
2013-06-12 00:19:00,49.2,47.8,27.88,NW,318,0.0,0.0,95,0.00,,---,0.00,VWS V14.01,2013-06-12 05:19:00,
2013-06-12 00:24:00,49.2,48.1,27.88,NW,318,0.0,0.0,96,0.00,,---,0.00,VWS V14.01,2013-06-12 05:24:00,
2013-06-12 00:29:00,49.2,48.1,27.88,NW,318,0.0,0.0,96,0.00,,---,0.00,VWS V14.01,2013-06-12 05:29:00,
2013-06-12 00:34:00,49.2,48.1,27.88,NW,318,0.0,0.0,96,0.00,,---,0.00,VWS V14.01,2013-06-12 05:34:00,
2013-06-12 00:39:00,49.2,48.1,27.88,NW,318,0.0,0.0,96,0.00,,---,0.00,VWS V14.01,2013-06-12 05:39:00,
2013-06-12 00:44:00,49.3,48.2,27.88,NW,318,0.0,0.0,96,0.00,,---,0.00,VWS V14.01,2013-06-12 05:44:00,
2013-06-12 00:50:00,49.4,48.3,27.88,NW,318,0.0,0.0,96,0.00,,---,0.00,VWS V14.01,2013-06-12 05:50:00,
2013-06-12 00:55:00,49.4,48.3,27.88,NW,318,0.0,0.0,96,0.00,,---,0.00,VWS V14.01,2013-06-12 05:55:00,
2013-06-12 01:00:00,49.4,48.3,27.88,NW,318,0.0,0.0,96,0.00,,---,0.00,VWS V14.01,2013-06-12 06:00:00,
2013-06-12 01:05:00,49.3,48.2,27.88,NW,318,0.0,0.0,96,0.00,,---,0.00,VWS V14.01,2013-06-12 06:05:00,
2013-06-12 01:10:00,49.2,48.1,27.88,NW,318,0.0,0.0,96,0.00,,---,0.00,VWS V14.01,2013-06-12 06:10:00,
2013-06-12 01:15:00,49.2,48.1,27.88,NW,318,0.0,0.0,96,0.00,,---,0.00,VWS V14.01,2013-06-12 06:15:00,
2013-06-12 01:20:00,49.0,47.9,27.88,NW,318,0.0,0.0,96,0.00,,---,0.00,VWS V14.01,2013-06-12 06:20:00,
2013-06-12 01:26:00,48.8,47.7,27.88,NW,318,0.0,0.0,96,0.00,,---,0.00,VWS V14.01,2013-06-12 06:26:00,
2013-06-12 01:31:00,48.9,47.8,27.88,NW,318,0.0,0.0,96,0.00,,---,0.00,VWS V14.01,2013-06-12 06:31:00,
2013-06-12 01:36:00,49.0,47.9,27.88,NW,318,0.0,0.0,96,0.00,,---,0.00,VWS V14.01,2013-06-12 06:36:00,
2013-06-12 01:41:00,49.1,48.0,27.88,NW,318,0.0,0.0,96,0.00,,---,0.00,VWS V14.01,2013-06-12 06:41:00,
2013-06-12 01:46:00,49.0,47.9,27.88,NW,318,0.0,0.0,96,0.00,,---,0.00,VWS V14.01,2013-06-12 06:46:00,
2013-06-12 01:52:00,48.9,47.8,27.88,NW,318,0.0,0.0,96,0.00,,---,0.00,VWS V14.01,2013-06-12 06:52:00,
2013-06-12 01:57:00,48.7,47.6,27.88,NW,318,0.0,0.0,96,0.00,,---,0.00,VWS V14.01,2013-06-12 06:57:00,
2013-06-12 02:02:00,48.6,47.5,27.88,NW,318,0.0,0.0,96,0.00,,---,0.00,VWS V14.01,2013-06-12 07:02:00,
2013-06-12 02:07:00,48.5,47.4,27.88,NW,318,0.0,0.0,96,0.00,,---,0.00,VWS V14.01,2013-06-12 07:07:00,
2013-06-12 02:12:00,48.5,47.4,27.88,NW,318,0.0,0.0,96,0.00,,---,0.00,VWS V14.01,2013-06-12 07:12:00,
2013-06-12 02:17:00,48.6,47.5,27.88,NW,318,0.0,0.0,96,0.00,,---,0.00,VWS V14.01,2013-06-12 07:17:00,
2013-06-12 02:22:00,48.5,47.4,27.88,NW,318,0.0,0.0,96,0.00,,---,0.00,VWS V14.01,2013-06-12 07:22:00,
2013-06-12 02:27:00,48.3,47.2,27.88,NW,318,0.0,0.0,96,0.00,,---,0.00,VWS V14.01,2013-06-12 07:27:00,
2013-06-12 02:32:00,48.3,47.2,27.88,NW,318,0.0,0.0,96,0.00,,---,0.00,VWS V14.01,2013-06-12 07:32:00,
2013-06-12 02:37:00,48.1,47.0,27.88,NW,318,0.0,0.0,96,0.00,,---,0.00,VWS V14.01,2013-06-12 07:37:00,
2013-06-12 02:42:00,48.0,46.9,27.88,NW,318,0.0,0.0,96,0.00,,---,0.00,VWS V14.01,2013-06-12 07:42:00,
2013-06-12 02:48:00,48.1,47.0,27.88,NW,318,0.0,0.0,96,0.00,,---,0.00,VWS V14.01,2013-06-12 07:48:00,
2013-06-12 02:53:00,48.1,47.3,27.88,NW,318,0.0,0.0,97,0.00,,---,0.00,VWS V14.01,2013-06-12 07:53:00,
2013-06-12 02:58:00,48.0,46.9,27.88,NW,318,0.0,0.0,96,0.00,,---,0.00,VWS V14.01,2013-06-12 07:58:00,
2013-06-12 03:03:00,47.7,46.6,27.88,NW,318,0.0,0.0,96,0.00,,---,0.00,VWS V14.01,2013-06-12 08:03:00,
2013-06-12 03:08:00,47.4,46.3,27.88,NW,318,0.0,0.0,96,0.00,,---,0.00,VWS V14.01,2013-06-12 08:08:00,
2013-06-12 03:13:00,47.1,46.0,27.88,NW,318,0.0,0.0,96,0.00,,---,0.00,VWS V14.01,2013-06-12 08:13:00,
2013-06-12 03:18:00,47.0,45.9,27.88,NW,318,0.0,0.0,96,0.00,,---,0.00,VWS V14.01,2013-06-12 08:18:00,
2013-06-12 03:23:00,46.9,45.8,27.88,NW,318,0.0,0.0,96,0.00,,---,0.00,VWS V14.01,2013-06-12 08:23:00,
2013-06-12 03:28:00,46.8,45.7,27.88,NW,318,0.0,0.0,96,0.00,,---,0.00,VWS V14.01,2013-06-12 08:28:00,
2013-06-12 03:33:00,46.7,45.6,27.87,NW,318,0.0,0.0,96,0.00,,---,0.00,VWS V14.01,2013-06-12 08:33:00,
2013-06-12 03:38:00,46.6,45.8,27.87,NW,318,0.0,0.0,97,0.00,,---,0.00,VWS V14.01,2013-06-12 08:38:00,
2013-06-12 03:44:00,46.7,45.6,27.87,NW,318,0.0,0.0,96,0.00,,---,0.00,VWS V14.01,2013-06-12 08:44:00,
2013-06-12 03:49:00,46.5,45.7,27.88,NW,318,0.0,0.0,97,0.00,,---,0.00,VWS V14.01,2013-06-12 08:49:00,
2013-06-12 03:54:00,46.3,45.5,27.88,NW,318,0.0,0.0,97,0.00,,---,0.00,VWS V14.01,2013-06-12 08:54:00,
2013-06-12 03:59:00,46.1,45.0,27.88,NW,318,0.0,0.0,96,0.00,,---,0.00,VWS V14.01,2013-06-12 08:59:00,
2013-06-12 04:04:00,46.1,45.3,27.88,NW,318,0.0,0.0,97,0.00,,---,0.00,VWS V14.01,2013-06-12 09:04:00,
2013-06-12 04:09:00,46.0,45.2,27.88,NW,318,0.0,0.0,97,0.00,,---,0.00,VWS V14.01,2013-06-12 09:09:00,
2013-06-12 04:15:00,45.7,44.6,27.88,NW,318,0.0,0.0,96,0.00,,---,0.00,VWS V14.01,2013-06-12 09:15:00,
2013-06-12 04:20:00,45.6,44.5,27.88,NW,318,0.0,0.0,96,0.00,,---,0.00,VWS V14.01,2013-06-12 09:20:00,
2013-06-12 04:25:00,45.9,45.1,27.88,NW,318,0.0,0.0,97,0.00,,---,0.00,VWS V14.01,2013-06-12 09:25:00,
2013-06-12 04:30:00,46.1,45.3,27.89,NW,318,0.0,0.0,97,0.00,,---,0.00,VWS V14.01,2013-06-12 09:30:00,
2013-06-12 04:36:00,45.9,45.1,27.89,NW,318,0.0,0.0,97,0.00,,---,0.00,VWS V14.01,2013-06-12 09:36:00,
2013-06-12 04:41:00,45.8,45.0,27.89,NW,318,0.0,0.0,97,0.00,,---,0.00,VWS V14.01,2013-06-12 09:41:00,
2013-06-12 04:46:00,45.6,44.8,27.89,NW,318,0.0,0.0,97,0.00,,---,0.00,VWS V14.01,2013-06-12 09:46:00,
2013-06-12 04:51:00,45.4,44.6,27.89,NW,318,0.0,0.0,97,0.00,,---,0.00,VWS V14.01,2013-06-12 09:51:00,
2013-06-12 04:56:00,45.6,44.8,27.89,NW,318,0.0,0.0,97,0.00,,---,0.00,VWS V14.01,2013-06-12 09:56:00,
2013-06-12 05:02:00,45.6,44.8,27.88,NW,318,0.0,0.0,97,0.00,,---,0.00,VWS V14.01,2013-06-12 10:02:00,
2013-06-12 05:07:00,45.7,44.9,27.88,NW,318,0.0,0.0,97,0.00,,---,0.00,VWS V14.01,2013-06-12 10:07:00,
2013-06-12 05:12:00,45.6,44.8,27.88,NW,318,0.0,0.0,97,0.00,,---,0.00,VWS V14.01,2013-06-12 10:12:00,
2013-06-12 05:17:00,45.4,44.6,27.89,NW,318,0.0,0.0,97,0.00,,---,0.00,VWS V14.01,2013-06-12 10:17:00,
2013-06-12 05:22:00,45.2,44.4,27.89,NW,318,0.0,0.0,97,0.00,,---,0.00,VWS V14.01,2013-06-12 10:22:00,
2013-06-12 05:27:00,45.1,44.3,27.89,NW,318,0.0,0.0,97,0.00,,---,0.00,VWS V14.01,2013-06-12 10:27:00,
2013-06-12 05:33:00,45.0,44.2,27.88,NW,318,0.0,0.0,97,0.00,,---,0.00,VWS V14.01,2013-06-12 10:33:00,
2013-06-12 05:38:00,45.1,44.3,27.88,NW,318,0.0,0.0,97,0.00,,---,0.00,VWS V14.01,2013-06-12 10:38:00,
2013-06-12 05:43:00,45.4,44.6,27.88,NW,318,0.0,0.0,97,0.00,,---,0.00,VWS V14.01,2013-06-12 10:43:00,
2013-06-12 05:48:00,45.6,44.8,27.89,NW,318,0.0,0.0,97,0.00,,---,0.00,VWS V14.01,2013-06-12 10:48:00,
2013-06-12 05:53:00,46.3,45.5,27.89,NW,318,0.0,0.0,97,0.00,,---,0.00,VWS V14.01,2013-06-12 10:53:00,
2013-06-12 05:59:00,47.1,46.3,27.89,NW,318,0.0,0.0,97,0.00,,---,0.00,VWS V14.01,2013-06-12 10:59:00,
2013-06-12 06:04:00,47.6,46.8,27.89,NW,318,0.0,0.0,97,0.00,,---,0.00,VWS V14.01,2013-06-12 11:04:00,
2013-06-12 06:09:00,48.1,47.3,27.89,NW,318,0.0,0.0,97,0.00,,---,0.00,VWS V14.01,2013-06-12 11:09:00,
2013-06-12 06:14:00,48.6,47.8,27.89,NW,318,0.0,0.0,97,0.00,,---,0.00,VWS V14.01,2013-06-12 11:14:00,
2013-06-12 06:19:00,49.0,48.2,27.89,NW,318,0.0,0.0,97,0.00,,---,0.00,VWS V14.01,2013-06-12 11:19:00,
2013-06-12 06:24:00,49.5,48.7,27.89,NW,318,0.0,0.0,97,0.00,,---,0.00,VWS V14.01,2013-06-12 11:24:00,
2013-06-12 06:29:00,49.9,49.4,27.89,NW,318,0.0,0.0,98,0.00,,---,0.00,VWS V14.01,2013-06-12 11:29:00,
2013-06-12 06:35:00,50.5,50.0,27.89,NW,318,0.0,0.0,98,0.00,,---,0.00,VWS V14.01,2013-06-12 11:35:00,
2013-06-12 06:40:00,51.2,50.7,27.89,NW,318,0.0,0.0,98,0.00,,---,0.00,VWS V14.01,2013-06-12 11:40:00,
2013-06-12 06:45:00,51.9,51.4,27.89,NW,318,0.0,1.0,98,0.00,,---,0.00,VWS V14.01,2013-06-12 11:45:00,
2013-06-12 06:50:00,52.3,51.8,27.89,NW,318,1.0,1.0,98,0.00,,---,0.00,VWS V14.01,2013-06-12 11:50:00,
2013-06-12 06:55:00,52.9,52.3,27.89,NW,318,1.0,2.0,98,0.00,,---,0.00,VWS V14.01,2013-06-12 11:55:00,
2013-06-12 07:01:00,53.9,53.1,27.89,NW,318,0.0,0.0,97,0.00,,---,0.00,VWS V14.01,2013-06-12 12:01:00,
2013-06-12 07:06:00,54.9,53.2,27.89,NW,318,0.0,1.0,94,0.00,,---,0.00,VWS V14.01,2013-06-12 12:06:00,
2013-06-12 07:11:00,55.7,52.5,27.89,NW,318,1.0,1.0,89,0.00,,---,0.00,VWS V14.01,2013-06-12 12:11:00,
2013-06-12 07:16:00,56.6,51.8,27.90,NW,311,3.0,4.0,84,0.00,,---,0.00,VWS V14.01,2013-06-12 12:16:00,
2013-06-12 07:22:00,57.5,51.7,27.90,WNW,300,0.0,3.0,81,0.00,,---,0.00,VWS V14.01,2013-06-12 12:22:00,
2013-06-12 07:27:00,58.3,52.2,27.90,WNW,299,0.0,2.0,80,0.00,,---,0.00,VWS V14.01,2013-06-12 12:27:00,
2013-06-12 07:32:00,59.0,52.8,27.89,WNW,299,0.0,0.0,80,0.00,,---,0.00,VWS V14.01,2013-06-12 12:32:00,
2013-06-12 07:37:00,59.9,53.4,27.89,WNW,299,0.0,0.0,79,0.00,,---,0.00,VWS V14.01,2013-06-12 12:37:00,
2013-06-12 07:42:00,60.7,52.7,27.89,WNW,299,0.0,0.0,75,0.00,,---,0.00,VWS V14.01,2013-06-12 12:42:00,
2013-06-12 07:48:00,61.4,52.3,27.89,WNW,299,1.0,3.0,72,0.00,,---,0.00,VWS V14.01,2013-06-12 12:48:00,
2013-06-12 07:53:00,61.8,53.1,27.89,WNW,299,0.0,0.0,73,0.00,,---,0.00,VWS V14.01,2013-06-12 12:53:00,
2013-06-12 07:58:00,62.7,52.8,27.89,WNW,299,1.0,1.0,70,0.00,,---,0.00,VWS V14.01,2013-06-12 12:58:00,
2013-06-12 08:03:00,62.8,51.3,27.89,WNW,303,0.0,3.0,66,0.00,,---,0.00,VWS V14.01,2013-06-12 13:03:00,
2013-06-12 08:08:00,63.0,51.5,27.89,WNW,303,0.0,1.0,66,0.00,,---,0.00,VWS V14.01,2013-06-12 13:08:00,
2013-06-12 08:13:00,63.4,51.4,27.89,WNW,303,2.0,2.0,65,0.00,,---,0.00,VWS V14.01,2013-06-12 13:13:00,
2013-06-12 08:18:00,63.6,52.0,27.88,NW,320,0.0,0.0,66,0.00,,---,0.00,VWS V14.01,2013-06-12 13:18:00,
2013-06-12 08:23:00,64.3,51.5,27.88,NW,318,0.0,0.0,63,0.00,,---,0.00,VWS V14.01,2013-06-12 13:23:00,
2013-06-12 08:29:00,64.5,52.1,27.88,NW,321,2.0,3.0,64,0.00,,---,0.00,VWS V14.01,2013-06-12 13:29:00,
2013-06-12 08:34:00,64.3,51.5,27.88,NW,324,3.0,4.0,63,0.00,,---,0.00,VWS V14.01,2013-06-12 13:34:00,
2013-06-12 08:39:00,64.0,50.7,27.88,NNW,332,0.0,3.0,62,0.00,,---,0.00,VWS V14.01,2013-06-12 13:39:00,
2013-06-12 08:44:00,64.5,52.1,27.88,NNW,347,0.0,1.0,64,0.00,,---,0.00,VWS V14.01,2013-06-12 13:44:00,
2013-06-12 08:49:00,65.4,52.9,27.88,NNW,347,1.0,1.0,64,0.00,,---,0.00,VWS V14.01,2013-06-12 13:49:00,
2013-06-12 08:54:00,65.9,52.5,27.88,NNW,347,1.0,1.0,62,0.00,,---,0.00,VWS V14.01,2013-06-12 13:54:00,
2013-06-12 08:59:00,66.3,52.9,27.88,NNW,348,0.0,0.0,62,0.00,,---,0.00,VWS V14.01,2013-06-12 13:59:00,
2013-06-12 09:05:00,67.1,52.3,27.88,NNW,343,3.0,4.0,59,0.00,,---,0.00,VWS V14.01,2013-06-12 14:05:00,
2013-06-12 09:10:00,66.8,53.4,27.88,NNW,346,2.0,2.0,62,0.00,,---,0.00,VWS V14.01,2013-06-12 14:10:00,
2013-06-12 09:15:00,66.5,52.2,27.88,NNW,334,0.0,2.0,60,0.00,,---,0.00,VWS V14.01,2013-06-12 14:15:00,
2013-06-12 09:20:00,66.8,52.9,27.88,NNW,344,2.0,3.0,61,0.00,,---,0.00,VWS V14.01,2013-06-12 14:20:00,
2013-06-12 09:26:00,66.6,51.8,27.88,WNW,294,1.0,3.0,59,0.00,,---,0.00,VWS V14.01,2013-06-12 14:26:00,
2013-06-12 09:31:00,66.5,51.8,27.88,NW,308,0.0,1.0,59,0.00,,---,0.00,VWS V14.01,2013-06-12 14:31:00,
2013-06-12 09:36:00,66.5,51.8,27.88,NNW,340,5.0,5.0,59,0.00,,---,0.00,VWS V14.01,2013-06-12 14:36:00,
2013-06-12 09:41:00,66.4,52.1,27.88,NNW,340,0.0,5.0,60,0.00,,---,0.00,VWS V14.01,2013-06-12 14:41:00,
2013-06-12 09:46:00,67.3,52.5,27.87,NNW,346,2.0,4.0,59,0.00,,---,0.00,VWS V14.01,2013-06-12 14:46:00,
2013-06-12 09:51:00,67.5,51.3,27.87,North,5,3.0,5.0,56,0.00,,---,0.00,VWS V14.01,2013-06-12 14:51:00,
2013-06-12 09:56:00,67.6,52.3,27.87,NNW,340,8.0,8.0,58,0.00,,---,0.00,VWS V14.01,2013-06-12 14:56:00,
2013-06-12 10:01:00,67.9,51.6,27.87,North,355,7.0,7.0,56,0.00,,---,0.00,VWS V14.01,2013-06-12 15:01:00,
2013-06-12 10:07:00,67.9,51.6,27.87,WNW,297,0.0,2.0,56,0.00,,---,0.00,VWS V14.01,2013-06-12 15:07:00,
2013-06-12 10:12:00,69.1,51.8,27.87,WSW,254,2.0,5.0,54,0.00,,---,0.00,VWS V14.01,2013-06-12 15:12:00,
2013-06-12 10:17:00,69.0,51.7,27.88,WNW,290,3.0,3.0,54,0.00,,---,0.00,VWS V14.01,2013-06-12 15:17:00,
2013-06-12 10:22:00,68.9,51.6,27.88,WNW,297,1.0,3.0,54,0.00,,---,0.00,VWS V14.01,2013-06-12 15:22:00,
2013-06-12 10:27:00,68.6,50.3,27.88,NW,307,4.0,5.0,52,0.00,,---,0.00,VWS V14.01,2013-06-12 15:27:00,
2013-06-12 10:32:00,68.5,51.7,27.88,West,279,6.0,6.0,55,0.00,,---,0.00,VWS V14.01,2013-06-12 15:32:00,
2013-06-12 10:37:00,68.0,50.8,27.88,WNW,286,4.0,7.0,54,0.00,,---,0.00,VWS V14.01,2013-06-12 15:37:00,
2013-06-12 10:42:00,67.5,49.8,27.88,WNW,284,3.0,4.0,53,0.00,,---,0.00,VWS V14.01,2013-06-12 15:42:00,
2013-06-12 10:48:00,67.8,50.6,27.89,WNW,290,2.0,5.0,54,0.00,,---,0.00,VWS V14.01,2013-06-12 15:48:00,
2013-06-12 10:53:00,68.0,50.2,27.89,WNW,296,0.0,2.0,53,0.00,,---,0.00,VWS V14.01,2013-06-12 15:53:00,
2013-06-12 10:58:00,68.3,50.5,27.89,WNW,284,5.0,9.0,53,0.00,,---,0.00,VWS V14.01,2013-06-12 15:58:00,
2013-06-12 11:03:00,68.7,50.9,27.89,WNW,286,0.0,5.0,53,0.00,,---,0.00,VWS V14.01,2013-06-12 16:03:00,
2013-06-12 11:08:00,69.0,50.7,27.89,NNW,343,1.0,5.0,52,0.00,,---,0.00,VWS V14.01,2013-06-12 16:08:00,
2013-06-12 11:14:00,68.9,50.0,27.89,North,355,1.0,5.0,51,0.00,,---,0.00,VWS V14.01,2013-06-12 16:14:00,
2013-06-12 11:19:00,68.5,49.2,27.89,NNW,331,3.0,4.0,50,0.00,,---,0.00,VWS V14.01,2013-06-12 16:19:00,
2013-06-12 11:24:00,68.9,50.6,27.89,WNW,300,2.0,2.0,52,0.00,,---,0.00,VWS V14.01,2013-06-12 16:24:00,
2013-06-12 11:29:00,69.3,50.4,27.89,NW,317,1.0,4.0,51,0.00,,---,0.00,VWS V14.01,2013-06-12 16:29:00,
2013-06-12 11:34:00,69.5,51.1,27.88,NNE,15,2.0,7.0,52,0.00,,---,0.00,VWS V14.01,2013-06-12 16:34:00,
2013-06-12 11:39:00,68.7,49.9,27.88,NNW,327,4.0,5.0,51,0.00,,---,0.00,VWS V14.01,2013-06-12 16:39:00,
2013-06-12 11:45:00,69.0,50.7,27.88,NNE,14,3.0,6.0,52,0.00,,---,0.00,VWS V14.01,2013-06-12 16:45:00,
2013-06-12 11:50:00,69.6,51.2,27.88,North,5,3.0,3.0,52,0.00,,---,0.00,VWS V14.01,2013-06-12 16:50:00,
2013-06-12 11:55:00,69.4,51.5,27.88,NW,317,5.0,6.0,53,0.00,,---,0.00,VWS V14.01,2013-06-12 16:55:00,
2013-06-12 12:00:00,69.7,51.3,27.88,West,270,6.0,8.0,52,0.00,,---,0.00,VWS V14.01,2013-06-12 17:00:00,
2013-06-12 12:06:00,69.9,51.5,27.88,NW,305,1.0,5.0,52,0.00,,---,0.00,VWS V14.01,2013-06-12 17:06:00,
2013-06-12 12:11:00,70.0,51.1,27.88,NW,315,2.0,5.0,51,0.00,,---,0.00,VWS V14.01,2013-06-12 17:11:00,
2013-06-12 12:16:00,69.9,52.0,27.88,NNE,12,8.0,8.0,53,0.00,,---,0.00,VWS V14.01,2013-06-12 17:16:00,
2013-06-12 12:21:00,70.1,51.7,27.88,NW,305,4.0,7.0,52,0.00,,---,0.00,VWS V14.01,2013-06-12 17:21:00,
2013-06-12 12:26:00,69.6,52.2,27.88,NW,326,3.0,4.0,54,0.00,,---,0.00,VWS V14.01,2013-06-12 17:26:00,
2013-06-12 12:31:00,70.1,52.7,27.88,WSW,256,3.0,8.0,54,0.00,,---,0.00,VWS V14.01,2013-06-12 17:31:00,
2013-06-12 12:36:00,69.9,53.0,27.88,WNW,290,5.0,7.0,55,0.00,,---,0.00,VWS V14.01,2013-06-12 17:36:00,
2013-06-12 12:41:00,71.1,53.6,27.88,North,5,3.0,4.0,54,0.00,,---,0.00,VWS V14.01,2013-06-12 17:41:00,
2013-06-12 12:46:00,70.7,51.2,27.88,NW,321,3.0,6.0,50,0.00,,---,0.00,VWS V14.01,2013-06-12 17:46:00,
2013-06-12 12:51:00,69.4,51.5,27.88,West,271,3.0,15.0,53,0.00,,---,0.00,VWS V14.01,2013-06-12 17:51:00,
2013-06-12 12:56:00,68.9,52.1,27.88,WNW,290,2.0,6.0,55,0.00,,---,0.00,VWS V14.01,2013-06-12 17:56:00,
2013-06-12 13:01:00,69.1,52.3,27.88,NNW,330,4.0,6.0,55,0.00,,---,0.00,VWS V14.01,2013-06-12 18:01:00,
2013-06-12 13:07:00,69.8,51.9,27.88,NNW,330,2.0,4.0,53,0.00,,---,0.00,VWS V14.01,2013-06-12 18:07:00,
2013-06-12 13:12:00,69.9,52.5,27.88,NNE,17,6.0,7.0,54,0.00,,---,0.00,VWS V14.01,2013-06-12 18:12:00,
2013-06-12 13:17:00,70.5,53.1,27.88,NNW,340,4.0,7.0,54,0.00,,---,0.00,VWS V14.01,2013-06-12 18:17:00,
2013-06-12 13:22:00,69.7,52.3,27.88,NNE,28,6.0,6.0,54,0.00,,---,0.00,VWS V14.01,2013-06-12 18:22:00,
2013-06-12 13:27:00,69.8,51.4,27.88,NNE,30,4.0,5.0,52,0.00,,---,0.00,VWS V14.01,2013-06-12 18:27:00,
2013-06-12 13:32:00,70.4,52.0,27.88,West,265,5.0,5.0,52,0.00,,---,0.00,VWS V14.01,2013-06-12 18:32:00,
2013-06-12 13:38:00,71.0,51.5,27.88,North,360,9.0,12.0,50,0.00,,---,0.00,VWS V14.01,2013-06-12 18:38:00,
2013-06-12 13:43:00,71.0,52.0,27.88,NNE,26,4.0,9.0,51,0.00,,---,0.00,VWS V14.01,2013-06-12 18:43:00,
2013-06-12 13:48:00,71.6,52.5,27.88,WNW,291,5.0,7.0,51,0.00,,---,0.00,VWS V14.01,2013-06-12 18:48:00,
2013-06-12 13:53:00,71.1,51.5,27.88,NW,310,5.0,11.0,50,0.00,,---,0.00,VWS V14.01,2013-06-12 18:53:00,
2013-06-12 13:58:00,70.6,51.6,27.88,WNW,296,4.0,7.0,51,0.00,,---,0.00,VWS V14.01,2013-06-12 18:58:00,
2013-06-12 14:03:00,70.3,51.3,27.87,North,351,1.0,1.0,51,0.00,,---,0.00,VWS V14.01,2013-06-12 19:03:00,
2013-06-12 14:09:00,71.1,51.5,27.87,West,267,7.0,8.0,50,0.00,,---,0.00,VWS V14.01,2013-06-12 19:09:00,
2013-06-12 14:14:00,71.5,51.9,27.87,NW,325,8.0,8.0,50,0.00,,---,0.00,VWS V14.01,2013-06-12 19:14:00,
2013-06-12 14:19:00,71.2,51.1,27.87,NW,312,11.0,11.0,49,0.00,,---,0.00,VWS V14.01,2013-06-12 19:19:00,
2013-06-12 14:24:00,71.3,51.2,27.87,North,10,4.0,6.0,49,0.00,,---,0.00,VWS V14.01,2013-06-12 19:24:00,
2013-06-12 14:29:00,71.2,50.5,27.87,NNW,344,5.0,10.0,48,0.00,,---,0.00,VWS V14.01,2013-06-12 19:29:00,
2013-06-12 14:34:00,70.9,50.2,27.87,North,360,4.0,11.0,48,0.00,,---,0.00,VWS V14.01,2013-06-12 19:34:00,
2013-06-12 14:39:00,70.8,50.7,27.87,NNE,18,6.0,7.0,49,0.00,,---,0.00,VWS V14.01,2013-06-12 19:39:00,
2013-06-12 14:44:00,71.4,50.7,27.87,North,10,9.0,9.0,48,0.00,,---,0.00,VWS V14.01,2013-06-12 19:44:00,
2013-06-12 14:49:00,71.7,49.8,27.87,NW,315,5.0,11.0,46,0.00,,---,0.00,VWS V14.01,2013-06-12 19:49:00,
2013-06-12 14:54:00,71.8,49.9,27.87,NNW,331,4.0,4.0,46,0.00,,---,0.00,VWS V14.01,2013-06-12 19:54:00,
2013-06-12 15:00:00,70.9,49.7,27.87,WNW,291,4.0,4.0,47,0.00,,---,0.00,VWS V14.01,2013-06-12 20:00:00,
2013-06-12 15:04:00,71.3,49.5,27.87,NNW,342,5.0,7.0,46,0.00,,---,0.00,VWS V14.01,2013-06-12 20:04:00,
2013-06-12 15:10:00,71.3,48.9,27.87,West,275,4.0,10.0,45,0.00,,---,0.00,VWS V14.01,2013-06-12 20:10:00,
2013-06-12 15:15:00,71.8,49.9,27.87,NNE,13,8.0,8.0,46,0.00,,---,0.00,VWS V14.01,2013-06-12 20:15:00,
2013-06-12 15:20:00,71.9,48.8,27.87,NNE,32,3.0,6.0,44,0.00,,---,0.00,VWS V14.01,2013-06-12 20:20:00,
2013-06-12 15:25:00,71.8,49.3,27.87,NNW,332,2.0,7.0,45,0.00,,---,0.00,VWS V14.01,2013-06-12 20:25:00,
2013-06-12 15:30:00,71.9,48.2,27.87,North,351,9.0,9.0,43,0.00,,---,0.00,VWS V14.01,2013-06-12 20:30:00,
2013-06-12 15:35:00,70.9,47.9,27.87,NW,325,2.0,2.0,44,0.00,,---,0.00,VWS V14.01,2013-06-12 20:35:00,
2013-06-12 15:41:00,71.5,47.8,27.87,NNW,342,6.0,6.0,43,0.00,,---,0.00,VWS V14.01,2013-06-12 20:41:00,
2013-06-12 15:46:00,71.4,47.8,27.87,NNW,346,4.0,9.0,43,0.00,,---,0.00,VWS V14.01,2013-06-12 20:46:00,
2013-06-12 15:51:00,71.1,47.5,27.87,West,269,2.0,6.0,43,0.00,,---,0.00,VWS V14.01,2013-06-12 20:51:00,
2013-06-12 15:56:00,71.3,48.9,27.87,NNW,334,4.0,7.0,45,0.00,,---,0.00,VWS V14.01,2013-06-12 20:56:00,
2013-06-12 16:01:00,72.7,49.5,27.87,WNW,302,2.0,6.0,44,0.00,,---,0.00,VWS V14.01,2013-06-12 21:01:00,
2013-06-12 16:07:00,72.4,48.0,27.87,NNW,348,1.0,6.0,42,0.00,,---,0.00,VWS V14.01,2013-06-12 21:07:00,
2013-06-12 16:12:00,72.1,48.4,27.87,NW,319,4.0,4.0,43,0.00,,---,0.00,VWS V14.01,2013-06-12 21:12:00,
2013-06-12 16:17:00,71.6,48.6,27.87,NW,305,12.0,13.0,44,0.00,,---,0.00,VWS V14.01,2013-06-12 21:17:00,
2013-06-12 16:22:00,70.9,46.7,27.87,North,5,4.0,8.0,42,0.00,,---,0.00,VWS V14.01,2013-06-12 21:22:00,
2013-06-12 16:27:00,71.2,48.2,27.87,NNW,338,2.0,5.0,44,0.00,,---,0.00,VWS V14.01,2013-06-12 21:27:00,
2013-06-12 16:32:00,70.9,49.1,27.87,WNW,297,6.0,7.0,46,0.00,,---,0.00,VWS V14.01,2013-06-12 21:32:00,
2013-06-12 16:37:00,70.6,47.7,27.87,WNW,284,3.0,6.0,44,0.00,,---,0.00,VWS V14.01,2013-06-12 21:37:00,
2013-06-12 16:43:00,70.5,49.9,27.87,NNW,346,3.0,3.0,48,0.00,,---,0.00,VWS V14.01,2013-06-12 21:43:00,
2013-06-12 16:48:00,71.0,48.0,27.87,NNW,337,4.0,10.0,44,0.00,,---,0.00,VWS V14.01,2013-06-12 21:48:00,
2013-06-12 16:53:00,70.3,48.0,27.87,NNW,334,3.0,11.0,45,0.00,,---,0.00,VWS V14.01,2013-06-12 21:53:00,
2013-06-12 16:58:00,70.1,47.8,27.87,NNE,16,2.0,3.0,45,0.00,,---,0.00,VWS V14.01,2013-06-12 21:58:00,
2013-06-12 17:03:00,69.5,47.2,27.87,NW,325,6.0,10.0,45,0.00,,---,0.00,VWS V14.01,2013-06-12 22:03:00,
2013-06-12 17:08:00,69.7,47.4,27.87,WNW,302,0.0,2.0,45,0.00,,---,0.00,VWS V14.01,2013-06-12 22:08:00,
2013-06-12 17:14:00,70.5,47.6,27.87,NW,319,2.0,7.0,44,0.00,,---,0.00,VWS V14.01,2013-06-12 22:14:00,
2013-06-12 17:19:00,70.6,47.7,27.86,North,5,2.0,6.0,44,0.00,,---,0.00,VWS V14.01,2013-06-12 22:19:00,
2013-06-12 17:25:00,69.3,48.2,27.86,NNW,346,2.0,6.0,47,0.00,,---,0.00,VWS V14.01,2013-06-12 22:25:00,
2013-06-12 17:30:00,68.6,46.4,27.86,NNW,346,2.0,5.0,45,0.00,,---,0.00,VWS V14.01,2013-06-12 22:30:00,
2013-06-12 17:35:00,68.9,47.3,27.86,NNW,340,0.0,3.0,46,0.00,,---,0.00,VWS V14.01,2013-06-12 22:35:00,
2013-06-12 17:40:00,69.4,47.2,27.86,North,355,4.0,5.0,45,0.00,,---,0.00,VWS V14.01,2013-06-12 22:40:00,
2013-06-12 17:45:00,69.8,47.5,27.86,NNE,13,8.0,8.0,45,0.00,,---,0.00,VWS V14.01,2013-06-12 22:45:00,
2013-06-12 17:51:00,70.1,48.4,27.86,NW,323,2.0,2.0,46,0.00,,---,0.00,VWS V14.01,2013-06-12 22:51:00,
2013-06-12 17:56:00,70.3,48.0,27.86,NNE,24,3.0,3.0,45,0.00,,---,0.00,VWS V14.01,2013-06-12 22:56:00,
2013-06-12 18:01:00,70.9,48.5,27.86,NW,315,3.0,7.0,45,0.00,,---,0.00,VWS V14.01,2013-06-12 23:01:00,
2013-06-12 18:06:00,70.7,47.7,27.86,NNW,342,8.0,8.0,44,0.00,,---,0.00,VWS V14.01,2013-06-12 23:06:00,
2013-06-12 18:11:00,70.4,46.9,27.86,NW,314,3.0,8.0,43,0.00,,---,0.00,VWS V14.01,2013-06-12 23:11:00,
2013-06-12 18:16:00,69.9,47.0,27.86,North,360,4.0,4.0,44,0.00,,---,0.00,VWS V14.01,2013-06-12 23:16:00,
2013-06-12 18:21:00,69.8,47.5,27.86,NNW,339,9.0,9.0,45,0.00,,---,0.00,VWS V14.01,2013-06-12 23:21:00,
2013-06-12 18:27:00,69.6,47.3,27.86,NNW,333,3.0,7.0,45,0.00,,---,0.00,VWS V14.01,2013-06-12 23:27:00,
2013-06-12 18:32:00,69.8,48.7,27.86,North,351,3.0,5.0,47,0.00,,---,0.00,VWS V14.01,2013-06-12 23:32:00,
2013-06-12 18:37:00,69.9,47.6,27.86,NNE,13,1.0,4.0,45,0.00,,---,0.00,VWS V14.01,2013-06-12 23:37:00,
2013-06-12 18:42:00,69.8,48.1,27.86,North,5,7.0,7.0,46,0.00,,---,0.00,VWS V14.01,2013-06-12 23:42:00,
2013-06-12 18:47:00,69.4,47.7,27.86,NNE,17,3.0,3.0,46,0.00,,---,0.00,VWS V14.01,2013-06-12 23:47:00,
2013-06-12 18:52:00,69.2,47.0,27.86,NNW,340,4.0,12.0,45,0.00,,---,0.00,VWS V14.01,2013-06-12 23:52:00,
2013-06-12 18:57:00,68.9,46.7,27.86,North,349,2.0,7.0,45,0.00,,---,0.00,VWS V14.01,2013-06-12 23:57:00,
2013-06-12 19:02:00,68.6,47.0,27.87,NW,323,1.0,1.0,46,0.00,,---,0.00,VWS V14.01,2013-06-13 00:02:00,
2013-06-12 19:08:00,68.5,47.5,27.87,NNW,342,4.0,5.0,47,0.00,,---,0.00,VWS V14.01,2013-06-13 00:08:00,
2013-06-12 19:13:00,68.5,47.5,27.87,NNE,22,3.0,7.0,47,0.00,,---,0.00,VWS V14.01,2013-06-13 00:13:00,
2013-06-12 19:18:00,68.1,47.7,27.87,NNW,336,3.0,8.0,48,0.00,,---,0.00,VWS V14.01,2013-06-13 00:18:00,
2013-06-12 19:23:00,67.7,47.9,27.87,NW,310,10.0,10.0,49,0.00,,---,0.00,VWS V14.01,2013-06-13 00:23:00,
2013-06-12 19:28:00,67.1,47.9,27.87,NW,324,3.0,6.0,50,0.00,,---,0.00,VWS V14.01,2013-06-13 00:28:00,
2013-06-12 19:33:00,66.7,48.5,27.88,NNE,22,1.0,4.0,52,0.00,,---,0.00,VWS V14.01,2013-06-13 00:33:00,
2013-06-12 19:38:00,66.5,48.9,27.88,NW,321,3.0,4.0,53,0.00,,---,0.00,VWS V14.01,2013-06-13 00:38:00,
2013-06-12 19:44:00,66.8,48.6,27.88,NNW,348,3.0,5.0,52,0.00,,---,0.00,VWS V14.01,2013-06-13 00:44:00,
2013-06-12 19:49:00,66.8,48.6,27.88,NNW,348,4.0,9.0,52,0.00,,---,0.00,VWS V14.01,2013-06-13 00:49:00,
2013-06-12 19:54:00,66.7,49.5,27.88,WNW,284,0.0,5.0,54,0.00,,---,0.00,VWS V14.01,2013-06-13 00:54:00,
2013-06-12 19:59:00,66.8,49.6,27.88,North,11,1.0,6.0,54,0.00,,---,0.00,VWS V14.01,2013-06-13 00:59:00,
2013-06-12 20:04:00,66.9,49.7,27.88,NNW,343,3.0,8.0,54,0.00,,---,0.00,VWS V14.01,2013-06-13 01:04:00,
2013-06-12 20:09:00,66.9,50.2,27.88,NNE,22,5.0,8.0,55,0.00,,---,0.00,VWS V14.01,2013-06-13 01:09:00,
2013-06-12 20:15:00,66.6,50.0,27.88,NW,321,1.0,3.0,55,0.00,,---,0.00,VWS V14.01,2013-06-13 01:15:00,
2013-06-12 20:20:00,66.1,50.0,27.89,North,355,0.0,4.0,56,0.00,,---,0.00,VWS V14.01,2013-06-13 01:20:00,
2013-06-12 20:25:00,65.6,49.5,27.89,North,11,4.0,11.0,56,0.00,,---,0.00,VWS V14.01,2013-06-13 01:25:00,
2013-06-12 20:30:00,65.1,50.0,27.89,NNE,27,4.0,8.0,58,0.00,,---,0.00,VWS V14.01,2013-06-13 01:30:00,
2013-06-12 20:35:00,64.8,50.2,27.89,NNW,327,6.0,9.0,59,0.00,,---,0.00,VWS V14.01,2013-06-13 01:35:00,
2013-06-12 20:40:00,64.5,50.3,27.89,NNW,348,9.0,9.0,60,0.00,,---,0.00,VWS V14.01,2013-06-13 01:40:00,
2013-06-12 20:46:00,64.2,50.5,27.90,North,355,1.0,3.0,61,0.00,,---,0.00,VWS V14.01,2013-06-13 01:46:00,
2013-06-12 20:51:00,63.9,51.1,27.90,North,360,3.0,3.0,63,0.00,,---,0.00,VWS V14.01,2013-06-13 01:51:00,
2013-06-12 20:56:00,63.8,51.0,27.90,North,351,5.0,5.0,63,0.00,,---,0.00,VWS V14.01,2013-06-13 01:56:00,
2013-06-12 21:01:00,63.8,51.4,27.90,NNE,12,4.0,5.0,64,0.00,,---,0.00,VWS V14.01,2013-06-13 02:01:00,
2013-06-12 21:06:00,63.8,51.4,27.90,NNE,15,4.0,6.0,64,0.00,,---,0.00,VWS V14.01,2013-06-13 02:06:00,
2013-06-12 21:12:00,63.7,51.3,27.90,NNE,20,2.0,5.0,64,0.00,,---,0.00,VWS V14.01,2013-06-13 02:12:00,
2013-06-12 21:17:00,63.6,51.2,27.91,North,11,2.0,7.0,64,0.00,,---,0.00,VWS V14.01,2013-06-13 02:17:00,
2013-06-12 21:22:00,63.4,51.4,27.91,North,360,0.0,2.0,65,0.00,,---,0.00,VWS V14.01,2013-06-13 02:22:00,
2013-06-12 21:27:00,63.0,51.5,27.91,North,355,0.0,0.0,66,0.00,,---,0.00,VWS V14.01,2013-06-13 02:27:00,
2013-06-12 21:32:00,62.7,51.2,27.92,NNE,17,2.0,5.0,66,0.00,,---,0.00,VWS V14.01,2013-06-13 02:32:00,
2013-06-12 21:37:00,62.5,51.0,27.92,North,5,0.0,4.0,66,0.00,,---,0.00,VWS V14.01,2013-06-13 02:37:00,
2013-06-12 21:42:00,62.3,50.8,27.92,NNE,15,2.0,2.0,66,0.00,,---,0.00,VWS V14.01,2013-06-13 02:42:00,
2013-06-12 21:47:00,62.0,50.5,27.92,North,349,0.0,2.0,66,0.00,,---,0.00,VWS V14.01,2013-06-13 02:47:00,
2013-06-12 21:53:00,61.9,50.4,27.92,NNE,14,2.0,2.0,66,0.00,,---,0.00,VWS V14.01,2013-06-13 02:53:00,
2013-06-12 21:58:00,61.6,50.1,27.92,NNE,19,2.0,4.0,66,0.00,,---,0.00,VWS V14.01,2013-06-13 02:58:00,
2013-06-12 22:03:00,61.4,50.4,27.92,NNE,21,3.0,3.0,67,0.00,,---,0.00,VWS V14.01,2013-06-13 03:03:00,
2013-06-12 22:08:00,61.0,50.4,27.92,NNE,17,2.0,3.0,68,0.00,,---,0.00,VWS V14.01,2013-06-13 03:08:00,
2013-06-12 22:13:00,60.6,50.4,27.92,North,9,3.0,4.0,69,0.00,,---,0.00,VWS V14.01,2013-06-13 03:13:00,
2013-06-12 22:19:00,60.5,50.3,27.93,North,5,1.0,1.0,69,0.00,,---,0.00,VWS V14.01,2013-06-13 03:19:00,
2013-06-12 22:24:00,60.2,50.4,27.93,North,360,0.0,0.0,70,0.00,,---,0.00,VWS V14.01,2013-06-13 03:24:00,
2013-06-12 22:29:00,59.8,50.4,27.93,North,360,0.0,0.0,71,0.00,,---,0.00,VWS V14.01,2013-06-13 03:29:00,
2013-06-12 22:34:00,59.5,50.5,27.93,North,360,1.0,1.0,72,0.00,,---,0.00,VWS V14.01,2013-06-13 03:34:00,
2013-06-12 22:39:00,59.0,50.0,27.93,North,360,0.0,0.0,72,0.00,,---,0.00,VWS V14.01,2013-06-13 03:39:00,
2013-06-12 22:44:00,58.6,50.3,27.93,North,360,0.0,0.0,74,0.00,,---,0.00,VWS V14.01,2013-06-13 03:44:00,
2013-06-12 22:49:00,58.2,50.3,27.94,North,360,0.0,0.0,75,0.00,,---,0.00,VWS V14.01,2013-06-13 03:49:00,
2013-06-12 22:55:00,57.8,50.3,27.94,North,360,0.0,0.0,76,0.00,,---,0.00,VWS V14.01,2013-06-13 03:55:00,
2013-06-12 23:00:00,57.5,50.4,27.94,North,360,0.0,1.0,77,0.00,,---,0.00,VWS V14.01,2013-06-13 04:00:00,
2013-06-12 23:01:00,57.4,50.3,27.94,North,360,0.0,0.0,77,0.00,,---,0.00,VWS V14.01,2013-06-13 04:01:00,
2013-06-12 23:02:00,57.4,50.3,27.94,North,360,0.0,0.0,77,0.00,,---,0.00,VWS V14.01,2013-06-13 04:02:00,
2013-06-12 23:04:00,57.3,50.2,27.94,North,360,1.0,3.0,77,0.00,,---,0.00,VWS V14.01,2013-06-13 04:04:00,
2013-06-12 23:09:00,57.2,50.4,27.94,North,360,1.0,2.0,78,0.00,,---,0.00,VWS V14.01,2013-06-13 04:09:00,
2013-06-12 23:15:00,57.2,50.4,27.94,North,360,1.0,1.0,78,0.00,,---,0.00,VWS V14.01,2013-06-13 04:15:00,
2013-06-12 23:20:00,57.1,50.7,27.94,North,360,0.0,1.0,79,0.00,,---,0.00,VWS V14.01,2013-06-13 04:20:00,
2013-06-12 23:25:00,56.9,50.5,27.94,North,360,0.0,0.0,79,0.00,,---,0.00,VWS V14.01,2013-06-13 04:25:00,
2013-06-12 23:30:00,56.9,50.8,27.94,NNW,343,0.0,1.0,80,0.00,,---,0.00,VWS V14.01,2013-06-13 04:30:00,
2013-06-12 23:35:00,56.8,50.7,27.94,NNW,343,1.0,1.0,80,0.00,,---,0.00,VWS V14.01,2013-06-13 04:35:00,
2013-06-12 23:40:00,56.9,50.8,27.94,NNW,343,0.0,0.0,80,0.00,,---,0.00,VWS V14.01,2013-06-13 04:40:00,
2013-06-12 23:46:00,57.1,51.0,27.95,NNW,343,0.0,1.0,80,0.00,,---,0.00,VWS V14.01,2013-06-13 04:46:00,
2013-06-12 23:51:00,56.9,50.8,27.95,NNW,343,0.0,1.0,80,0.00,,---,0.00,VWS V14.01,2013-06-13 04:51:00,
2013-06-12 23:56:00,56.8,51.0,27.95,NNE,19,1.0,5.0,81,0.00,,---,0.00,VWS V14.01,2013-06-13 04:56:00,